Simultaneous Nadir Overpasses (SNOs) Predictions

Prediction of SNOs between GOES-16 and METOP-C Satellite Orbit:

Table of predicted SNOs for the next 14.0 days since TLE Epoch: 12/21/2024
Index Date Time (GOES-16) GOES-16 Lat,Lon METOP-C Lat,Lon Distance(km) Time Diff (sec)
1 12/21/2024 02:14:54 0.02, -75.17 0.94, -71.13 460.18 15
2 12/22/2024 14:35:21 -0.01, -75.21 0.09, -75.69 54.26 80
3 12/25/2024 02:33:40 0.02, -75.20 0.03, -75.29 10.16 80
4 12/27/2024 14:31:51 -0.01, -75.26 -0.09, -74.85 47.17 80
5 12/29/2024 02:50:51 0.01, -75.24 -0.91, -79.44 477.80 80
6 12/30/2024 02:27:30 0.00, -75.26 0.18, -74.44 92.93 80
7 12/31/2024 14:46:21 -0.00, -75.31 0.83, -79.00 420.51 80
8 01/01/2025 14:28:21 0.00, -75.32 -0.27, -74.00 150.57 80
9 01/03/2025 02:47:20 -0.00, -75.31 -0.72, -78.60 373.56 80
